• In Österreich
  • Länderverzeichnis
  • Für 7 Tage
  • Wassertemperatur
  • Satellitenkarten
  • Wetterkarte
  • News
  • Widgets
  • user-avatar
    Anmelden

    Stündliche Wetter Graz

    Heute, 19 Juli, Donnerstag

    Zeit Temperatur Niederschläge Wind Luftdruck Luftfeuchtigkeit
    00:00 +19°C° 0 mm 1 m/S 724 mmHg 78%
    01:00 +19°C° 0 mm 1 m/S 724 mmHg 79%
    02:00 +18°C° 0 mm 1 m/S 724 mmHg 81%
    03:00 +18°C° 0 mm 1 m/S 724 mmHg 82%
    04:00 +16°C° 0 mm 2 m/S 724 mmHg 84%
    05:00 +19°C° 0 mm 1 m/S 724 mmHg 79%
    06:00 +20°C° 0 mm 1 m/S 724 mmHg 75%
    07:00 +22°C° 0 mm 1 m/S 724 mmHg 70%
    08:00 +24°C° 0 mm 2 m/S 724 mmHg 62%
    09:00 +26°C° 0 mm 2 m/S 724 mmHg 53%
    10:00 +28°C° 0 mm 2 m/S 725 mmHg 44%
    11:00 +29°C° 0 mm 2 m/S 724 mmHg 41%
    12:00 +29°C° 0 mm 2 m/S 724 mmHg 38%
    13:00 +30°C° 0 mm 2 m/S 724 mmHg 35%
    14:00 +30°C° 0 mm 2 m/S 724 mmHg 38%
    15:00 +29°C° 0 mm 1 m/S 724 mmHg 40%
    16:00 +29°C° 0 mm 1 m/S 724 mmHg 42%
    17:00 +27°C° 0 mm 1 m/S 724 mmHg 50%
    18:00 +25°C° 0 mm 1 m/S 724 mmHg 58%
    19:00 +24°C° 0 mm 1 m/S 723 mmHg 66%
    20:00 +22°C° 0 mm 1 m/S 724 mmHg 70%
    21:00 +21°C° 0 mm 1 m/S 724 mmHg 73%
    22:00 +19°C° 0 mm 1 m/S 724 mmHg 77%
    23:00 +19°C° 0 mm 1 m/S 724 mmHg 79%

    Morgen, 20 Juli, Freitag

    Zeit Temperatur Niederschläge Wind Luftdruck Luftfeuchtigkeit
    00:00 +18°C° 0 mm 1 m/S 724 mmHg 81%
    01:00 +18°C° 0 mm 1 m/S 724 mmHg 83%
    02:00 +16°C° 0 mm 1 m/S 724 mmHg 84%
    03:00 +16°C° 0 mm 1 m/S 724 mmHg 85%
    04:00 +16°C° 0 mm 1 m/S 724 mmHg 86%
    05:00 +19°C° 0 mm 1 m/S 724 mmHg 80%
    06:00 +20°C° 0 mm 1 m/S 724 mmHg 74%
    07:00 +20°C° 0 mm 0 m/S 724 mmHg 68%
    08:00 +23°C° 0 mm 0 m/S 725 mmHg 61%
    09:00 +25°C° 0 mm 0 m/S 725 mmHg 54%
    10:00 +29°C° 0 mm 1 m/S 725 mmHg 47%
    11:00 +30°C° 0 mm 1 m/S 724 mmHg 45%
    12:00 +30°C° 0 mm 1 m/S 724 mmHg 43%
    13:00 +31°C° 0 mm 1 m/S 724 mmHg 41%
    14:00 +30°C° 0 mm 1 m/S 723 mmHg 44%
    15:00 +30°C° 0 mm 1 m/S 723 mmHg 46%
    16:00 +29°C° 0 mm 1 m/S 723 mmHg 48%
    17:00 +28°C° 0,3 mm 1 m/S 723 mmHg 57%
    18:00 +26°C° 0,3 mm 1 m/S 723 mmHg 65%
    19:00 +25°C° 0,3 mm 1 m/S 722 mmHg 74%
    20:00 +24°C° 0,1 mm 1 m/S 723 mmHg 76%
    21:00 +23°C° 0,1 mm 1 m/S 723 mmHg 79%
    22:00 +21°C° 0,1 mm 1 m/S 723 mmHg 82%
    23:00 +21°C° 0,3 mm 1 m/S 722 mmHg 83%

    übermorgen, 21 Juli, Samstag

    Zeit Temperatur Niederschläge Wind Luftdruck Luftfeuchtigkeit
    00:00 +20°C° 0,3 mm 1 m/S 722 mmHg 85%
    01:00 +20°C° 0,3 mm 1 m/S 722 mmHg 86%
    02:00 +19°C° 0 mm 1 m/S 722 mmHg 87%
    03:00 +19°C° 0 mm 1 m/S 721 mmHg 87%
    04:00 +19°C° 0 mm 1 m/S 721 mmHg 88%
    05:00 +18°C° 0,2 mm 0 m/S 721 mmHg 85%
    06:00 +19°C° 0,2 mm 0 m/S 721 mmHg 82%
    07:00 +20°C° 0,2 mm 0 m/S 721 mmHg 80%
    08:00 +24°C° 0,2 mm 1 m/S 721 mmHg 74%
    09:00 +26°C° 0,2 mm 1 m/S 721 mmHg 68%
    10:00 +27°C° 0,2 mm 1 m/S 721 mmHg 63%
    11:00 +27°C° 1,6 mm 1 m/S 721 mmHg 65%
    12:00 +28°C° 1,6 mm 1 m/S 721 mmHg 67%
    13:00 +28°C° 1,6 mm 1 m/S 721 mmHg 69%
    14:00 +27°C° 1,1 mm 1 m/S 721 mmHg 70%
    15:00 +26°C° 1,1 mm 2 m/S 721 mmHg 72%
    16:00 +26°C° 1,1 mm 2 m/S 721 mmHg 74%
    17:00 +24°C° 1 mm 2 m/S 721 mmHg 78%
    18:00 +23°C° 1 mm 1 m/S 721 mmHg 83%
    19:00 +22°C° 1 mm 1 m/S 721 mmHg 87%
    20:00 +21°C° 0,5 mm 1 m/S 721 mmHg 89%
    21:00 +20°C° 0,5 mm 1 m/S 721 mmHg 91%
    22:00 +19°C° 0,5 mm 1 m/S 721 mmHg 93%
    23:00 +19°C° 0,1 mm 1 m/S 721 mmHg 93%

    22 Juli, Sonntag

    Zeit Temperatur Niederschläge Wind Luftdruck Luftfeuchtigkeit
    00:00 +18°C° 0,1 mm 1 m/S 721 mmHg 93%
    01:00 +18°C° 0,1 mm 1 m/S 721 mmHg 93%
    02:00 +18°C° 0,1 mm 1 m/S 721 mmHg 93%
    03:00 +18°C° 0,1 mm 1 m/S 721 mmHg 93%
    04:00 +18°C° 0,1 mm 1 m/S 721 mmHg 93%
    05:00 +18°C° 0,1 mm 1 m/S 721 mmHg 92%
    06:00 +19°C° 0,1 mm 1 m/S 721 mmHg 91%
    07:00 +20°C° 0,1 mm 1 m/S 721 mmHg 90%
    08:00 +22°C° 0,3 mm 1 m/S 721 mmHg 84%
    09:00 +23°C° 0,3 mm 1 m/S 721 mmHg 77%
    10:00 +25°C° 0,3 mm 1 m/S 721 mmHg 71%
    11:00 +26°C° 0,7 mm 1 m/S 721 mmHg 67%
    12:00 +27°C° 0,7 mm 1 m/S 721 mmHg 64%
    13:00 +28°C° 0,7 mm 1 m/S 721 mmHg 61%
    14:00 +27°C° 1 mm 1 m/S 721 mmHg 64%
    15:00 +26°C° 1 mm 1 m/S 720 mmHg 68%
    16:00 +25°C° 1 mm 1 m/S 720 mmHg 72%
    17:00 +24°C° 0,7 mm 1 m/S 720 mmHg 76%
    18:00 +23°C° 0,7 mm 1 m/S 720 mmHg 80%
    19:00 +22°C° 0,7 mm 1 m/S 720 mmHg 83%
    20:00 +21°C° 0,3 mm 1 m/S 720 mmHg 86%
    21:00 +19°C° 0,3 mm 2 m/S 721 mmHg 88%
    22:00 +18°C° 0,3 mm 2 m/S 721 mmHg 91%
    23:00 +18°C° 0 mm 2 m/S 721 mmHg 91%

    23 Juli, Montag

    Zeit Temperatur Niederschläge Wind Luftdruck Luftfeuchtigkeit
    00:00 +18°C° 0 mm 2 m/S 721 mmHg 91%
    01:00 +18°C° 0 mm 2 m/S 721 mmHg 91%
    02:00 +17°C° 0 mm 2 m/S 721 mmHg 91%
    03:00 +17°C° 0 mm 2 m/S 721 mmHg 91%
    04:00 +17°C° 0 mm 2 m/S 721 mmHg 91%
    05:00 +18°C° 0,1 mm 2 m/S 722 mmHg 90%
    06:00 +18°C° 0,1 mm 2 m/S 722 mmHg 89%
    07:00 +19°C° 0,1 mm 2 m/S 722 mmHg 89%
    08:00 +20°C° 0,1 mm 2 m/S 723 mmHg 82%
    09:00 +21°C° 0,1 mm 3 m/S 723 mmHg 75%
    10:00 +22°C° 0,1 mm 3 m/S 723 mmHg 69%
    11:00 +25°C° 0,1 mm 3 m/S 723 mmHg 62%
    12:00 +26°C° 0,1 mm 4 m/S 723 mmHg 54%
    13:00 +28°C° 0,1 mm 4 m/S 723 mmHg 47%
    14:00 +28°C° 0 mm 4 m/S 723 mmHg 47%
    15:00 +28°C° 0 mm 4 m/S 723 mmHg 47%
    16:00 +28°C° 0 mm 4 m/S 723 mmHg 46%
    17:00 +26°C° 0 mm 3 m/S 723 mmHg 54%
    18:00 +25°C° 0 mm 2 m/S 723 mmHg 62%
    19:00 +23°C° 0 mm 2 m/S 723 mmHg 70%
    20:00 +21°C° 0 mm 2 m/S 723 mmHg 75%
    21:00 +20°C° 0 mm 2 m/S 724 mmHg 79%
    22:00 +18°C° 0 mm 2 m/S 724 mmHg 83%
    23:00 +18°C° 0 mm 2 m/S 724 mmHg 85%

    24 Juli, Dienstag

    Zeit Temperatur Niederschläge Wind Luftdruck Luftfeuchtigkeit
    00:00 +17°C° 0 mm 2 m/S 724 mmHg 86%
    01:00 +17°C° 0 mm 2 m/S 724 mmHg 87%
    02:00 +17°C° 0 mm 2 m/S 724 mmHg 88%
    03:00 +16°C° 0 mm 2 m/S 724 mmHg 88%
    04:00 +16°C° 0 mm 1 m/S 724 mmHg 89%
    05:00 +19°C° 0 mm 1 m/S 724 mmHg 83%
    06:00 +20°C° 0 mm 1 m/S 724 mmHg 77%
    07:00 +22°C° 0 mm 1 m/S 725 mmHg 72%
    08:00 +24°C° 0 mm 1 m/S 725 mmHg 63%
    09:00 +26°C° 0 mm 2 m/S 725 mmHg 55%
    10:00 +28°C° 0 mm 2 m/S 725 mmHg 47%
    11:00 +29°C° 0 mm 2 m/S 725 mmHg 44%
    12:00 +30°C° 0 mm 2 m/S 724 mmHg 42%
    13:00 +30°C° 0 mm 2 m/S 724 mmHg 39%
    14:00 +30°C° 0 mm 2 m/S 724 mmHg 41%
    15:00 +30°C° 0 mm 2 m/S 724 mmHg 43%
    16:00 +29°C° 0 mm 2 m/S 724 mmHg 45%
    17:00 +28°C° 0 mm 2 m/S 724 mmHg 53%
    18:00 +26°C° 0 mm 1 m/S 724 mmHg 62%
    19:00 +24°C° 0 mm 1 m/S 723 mmHg 70%
    20:00 +23°C° 0 mm 1 m/S 724 mmHg 74%
    21:00 +22°C° 0 mm 1 m/S 724 mmHg 77%
    22:00 +20°C° 0 mm 1 m/S 724 mmHg 81%
    23:00 +20°C° 0 mm 1 m/S 724 mmHg 82%
    Mehr zeigen